This demonstration page uses our WeatherBlox Daily Observations layout. Learn more.

36.17497, -115.13722

Hourly Observations for February 11, 2018

Temp ( °F °C ) Dew Point ( °F °C ) Humidity (%) Winds ( mph kmh ) Pressure ( in mb ) Visibility ( mi km ) Precip ( " mm )
12:53 am 00:53 Clear 50 10 2 -16.7 14 14 NE 8 13 30.14 1021 10 16.0934 0 0
1:53 am 01:53 Clear 49 9.4 0 -17.8 13 13 NNE 10 17 30.13 1020 10 16.0934 0 0
2:53 am 02:53 Clear 47 8.3 1 -17.2 15 15 undefined N/A 30.13 1020 10 16.0934 0 0
3:53 am 03:53 Clear 46 7.8 1 -17.2 15 15 N 9 15 30.13 1020 10 16.0934 0 0
4:53 am 04:53 Clear 45 7.2 2 -16.7 16 16 N 8 13 30.14 1021 10 16.0934 0 0
5:53 am 05:53 Clear 43 6.1 2 -16.7 18 18 N 10 17 30.15 1021 10 16.0934 0 0
6:53 am 06:53 Sunny 43 6.1 3 -16.1 19 19 N 6 9 30.18 1022 10 16.0934 0 0
7:53 am 07:53 Sunny 45 7.2 4 -15.6 18 18 NNW 8 13 30.19 1022 10 16.0934 0 0
8:53 am 08:53 Sunny 48 8.9 4 -15.6 16 16 NNE 5 7 30.15 1021 10 16.0934 0 0
9:53 am 09:53 Sunny 50 10 1 -17.2 13 13 Calm 30.13 1020 10 16.0934 0 0
10:53 am 10:53 Sunny 52 11.1 2 -16.7 13 13 SE 5 7 30.09 1019 10 16.0934 0 0
11:53 am 11:53 Sunny 54 12.2 2 -16.7 12 12 S 8 13 30.02 1017 10 16.0934 0 0
12:53 pm 12:53 Sunny 55 12.8 -2 -18.9 9 9 SSE 10 17 29.96 1014 10 16.0934 0 0
1:53 pm 13:53 Sunny 56 13.3 -5 -20.6 8 8 SSE 7 11 29.91 1013 10 16.0934 0 0
2:53 pm 14:53 Sunny 56 13.3 -1 -18.3 9 9 S 7 11 29.88 1012 10 16.0934 0 0
3:53 pm 15:53 Sunny 56 13.3 -1 -18.3 9 9 SE 5 7 29.86 1011 10 16.0934 0 0
4:53 pm 16:53 Sunny 55 12.8 1 -17.2 11 11 ESE 6 9 29.85 1011 10 16.0934 0 0
5:53 pm 17:53 Clear 53 11.7 3 -16.1 13 13 ESE 6 9 29.83 1010 10 16.0934 0 0
6:53 pm 18:53 Clear 53 11.7 4 -15.6 13 13 E 6 9 29.79 1009 10 16.0934 0 0
7:53 pm 19:53 Clear 52 11.1 6 -14.4 15 15 E 7 11 29.78 1008 10 16.0934 0 0
8:53 pm 20:53 Clear 51 10.6 6 -14.4 16 16 E 6 9 29.75 1007 10 16.0934 0 0
9:53 pm 21:53 Clear 51 10.6 6 -14.4 16 16 NNE 6 9 29.7 1006 10 16.0934 0 0
10:53 pm 22:53 Clear 52 11.1 3 -16.1 13 13 SSE 3 6 29.68 1005 10 16.0934 0 0
11:53 pm 23:53 Clear 49 9.4 5 -15 16 16 NNE 3 6 29.68 1005 10 16.0934 0 0

Powered by AerisWeather